Regional Weather Roundup
Issued by NWS Cleveland, OH

Home | Current Version | Previous Version | Graphics & Text | Print | Product List | Glossary On
Versions: 1 2 3 4 5 6 7 8 9 10 11 12 13 14 15 16 17 18 19 20 21 22 23 24 25 26 27 28 29 30 31 32 33 34 35 36 37 38 39 40 41 42 43 44 45 46 47 48 49 50
000
ASUS41 KCLE 012000
RWRCLE
OHIO REGIONAL WEATHER ROUNDUP
NATIONAL WEATHER SERVICE WILMINGTON, OH
400 PM EDT MON SEP 01 2014

NOTE: "FAIR" INDICATES FEW OR NO CLOUDS BELOW 12,000 FEET WITH NO
SIGNIFICANT WEATHER AND/OR OBSTRUCTIONS TO VISIBILITY.

OHZ001>008-015>018-024>027-034-035-043-044-012100-
   NORTHWEST OHIO

CITY           SKY/WX    TMP DP  RH WIND       PRES   REMARKS
DEFIANCE       CLOUDY    84  69  60 SW16G29   29.81F
FINDLAY        PTSUNNY   85  69  58 SW21G28   29.84F
TOLEDO EXPRESS PTSUNNY   86  68  54 SW20G28   29.81S
TOLEDO METCALF PTSUNNY   87  67  51 SW25G33   29.82F HX  90
LIMA           MOSUNNY   85  70  60 SW14G26   29.86F
$$

OHZ009>014-019>023-028>033-038-089-012100-
   NORTHEAST OHIO

CITY           SKY/WX    TMP DP  RH WIND       PRES   REMARKS
CLE-HOPKINS    MOSUNNY   83  69  62 S16G25    29.88F
CLE-LAKEFRONT  MOSUNNY   87  68  52 SW16G24   29.83F HX  90
CUY CO. ARPT   PTSUNNY   84  72  65 SW12G22   29.88F
LORAIN-ELYRIA  MOSUNNY   87  69  54 SW13      29.87F HX  91
ASHTABULA      PTSUNNY   81  69  67 S13       29.89F
AKRON-CANTON   PTSUNNY   83  68  60 S15G23    29.92F
WOOSTER        NOT AVBL
MANSFIELD      MOSUNNY   83  69  62 S21G26    29.90F
YOUNGSTOWN     PTSUNNY   81  68  64 SW12G20   29.92F
$$

OHZ042-051>053-060>062-070>072-077>081-012100-
  SOUTHWEST OHIO

CITY           SKY/WX    TMP DP  RH WIND       PRES   REMARKS
CINC-COVINGTON PTSUNNY   84  71  65 SW13G18   29.94S
CINC-LUNKEN    PTSUNNY   86  71  60 SW12G21   29.92F HX  91
HAMILTON       MOSUNNY   87  73  62 SW8G22    29.92S HX  94
DAYTON         NOT AVBL
WRIGHT-PAT AFB SUNNY     83  72  69 S18       29.91S
DAYTON GENERAL MOSUNNY   83  72  69 SW10G22   29.92F
WILMINGTON     MOSUNNY   85  71  63 SW18      29.93F HX  90
$$

OHZ036-037-039>041-045>050-054>059-063>069-073>076-082>088-012100-
  CENTRAL AND SOUTHEAST OHIO

CITY           SKY/WX    TMP DP  RH WIND       PRES   REMARKS
COLUMBUS       CLOUDY    85  71  63 S15G21    29.91F HX  90
OSU AIRPORT    PTSUNNY   83  69  62 SW17G26   29.91F
BOLTON FIELD   CLOUDY    82  73  74 SW15G23   29.92F
RICKENBACK AFB NOT AVBL
NEWARK         MOSUNNY   82  71  69 SW10      29.92F
MARION         MOSUNNY   84  70  62 SW16G25   29.89F
LANCASTER      PTSUNNY   84  72  67 S13       29.93F
ZANESVILLE     PTSUNNY   82  70  66 SW12G20   29.94F
NEW PHILLY     PTSUNNY   82  72  71 VRB7      29.93F
$$


USA.gov is the U.S. government's official web portal to all federal, state and local government web resources and services.